テンペル第1彗星

9P/Tempel 1 (2011)

English version
Home page
Updated on September 14, 2013

---------------------------------------------------------------------

・ プロフィール

・ 写真集

・ 軌道要素

Epoch 2010 Dec. 30.0 TT = JDT 2455560.5
T 2011 Jan. 12.36570 TT                                 MPC
q   1.5103004            (2000.0)            P               Q
n   0.17850660     Peri.  178.92334     -0.37705378     +0.91038444
a   3.1239198      Node    68.90711     -0.85112308     -0.26802998
e   0.5165368      Incl.   10.52238     -0.36526695     -0.31521438
P   5.52
From 5716 observations 1967 June 8-2012 Dec. 7, mean residual 0".6.
     Nongravitational parameters A1 = +0.01, A2 = +0.0016.

・ 星図

・ 光度変化

        m1 = 14.0 + 5 logΔ +  7.5 log r  [    ,-290]  (              〜2010年 3月28日)
        m1 =  6.0 + 5 logΔ + 25   log r  [-290, 195]  (2010年 3月28日〜2011年 7月26日)
        m1 = 11.5 + 5 logΔ + 10.0 log r  [ 195,    ]  (2011年 7月26日〜              )

---------------------------------------------------------------------

軌道要素はM.P.E.C. 2013-O31に掲載されたものです。
星図は StellaNavigator Ver.2.0 for Windows (アストロアーツ編著 / アスキー出版局刊) で作成したものです。
光度グラフはComet for Windowsで作成したものです。

---------------------------------------------------------------------

Copyright(C) Seiichi Yoshida (comet@aerith.net). All rights reserved.